N4XWC Weather Reports


time (UTC)temp
C
wind
direction
speed
KPH
gust
KPH
rain 1hr
cm
rain 24hr
cm
rain mn
cm
humidity
%
barometer
mb
20260906073223 21 281 0.0 1.6 0.58 1.09 0.91 100 1011.5
20260906073202 21 281 0.0 1.6 0.58 1.09 0.91 100 1011.5
20260906072722 21 326 0.0 1.6 0.58 1.09 0.91 100 1011.4
20260906072223 21 17 3.2 4.8 0.56 1.07 0.89 100 1011.4
20260906072156 21 0 4.8 8.0 0.56 1.07 0.89 100 1011.4
20260906071723 21 301 1.6 3.2 0.53 1.04 0.86 100 1011.4
20260906071222 21 337 3.2 4.8 0.36 0.86 0.69 100 1011.7
20260906071157 21 299 3.2 3.2 0.36 0.86 0.69 100 1011.7
20260906070723 21 289 3.2 8.0 0.28 0.79 0.61 100 1011.7
20260906070223 21 0 4.8 9.7 0.03 0.53 0.36 100 1011.7
20260906070156 21 343 4.8 4.8 0.00 0.51 0.33 100 1011.7
20260906065722 21 0 4.8 6.4 0.00 0.51 0.33 100 1011.7
20260906065226 21 0 4.8 8.0 0.00 0.51 0.33 100 1011.7
20260906065223 21 0 6.4 8.0 0.00 0.51 0.33 100 1011.7
20260906065155 21 0 4.8 8.0 0.00 0.51 0.33 100 1011.7
20260906064723 21 3 3.2 3.2 0.00 0.51 0.33 100 1011.7
20260906064228 21 78 3.2 3.2 0.00 0.51 0.33 100 1011.4
20260906064222 21 78 0.0 3.2 0.00 0.51 0.33 100 1011.4
20260906064157 21 78 3.2 3.2 0.00 0.51 0.33 100 1011.4
20260906063722 21 130 0.0 0.0 0.00 0.51 0.33 100 1011.4
20260906063222 21 106 0.0 0.0 0.00 0.51 0.33 100 1011.4
20260906063159 21 106 0.0 0.0 0.00 0.51 0.33 100 1011.4
20260906062723 21 107 1.6 3.2 0.05 0.51 0.33 100 1011.1
20260906062223 21 294 0.0 0.0 0.05 0.51 0.33 100 1011.1
20260906062159 21 294 0.0 1.6 0.05 0.51 0.33 100 1011.1
20260906061722 21 329 1.6 4.8 0.15 0.51 0.33 100 1011.1
20260906061223 22 333 4.8 6.4 0.15 0.51 0.33 100 1011.0
20260906061156 22 342 8.0 9.7 0.15 0.51 0.33 100 1011.0
20260906060723 22 343 6.4 6.4 0.33 0.51 0.33 100 1011.0
20260906060223 22 354 14.5 14.5 0.33 0.51 0.33 99 1011.0
20260906060156 22 311 3.2 6.4 0.33 0.51 0.33 99 1011.0
20260906055722 22 6 8.0 8.0 0.51 0.51 0.33 97 1011.0
20260906055222 22 339 4.8 4.8 0.51 0.51 0.33 97 1011.0
20260906055156 22 346 3.2 3.2 0.51 0.51 0.33 97 1011.0
20260906054723 22 311 6.4 6.4 0.51 0.51 0.33 97 1011.0
20260906054224 22 256 1.6 1.6 0.51 0.51 0.33 99 1011.1
20260906054205 22 256 1.6 4.8 0.51 0.51 0.33 99 1011.1
20260906053722 22 308 11.3 11.3 0.51 0.51 0.33 99 1011.1
20260906053222 22 319 4.8 4.8 0.51 0.51 0.33 99 1011.1
20260906053158 22 319 4.8 4.8 0.51 0.51 0.33 99 1011.1
20260906052723 22 274 8.0 14.5 0.51 0.51 0.33 99 1012.1
20260906052659 21 295 6.4 16.1 0.46 0.46 0.28 97 1012.1
20260906052223 21 272 6.4 9.7 0.48 0.48 0.30 97 1012.1
20260906052156 21 295 6.4 16.1 0.46 0.46 0.28 97 1012.1
20260906051722 22 325 4.8 17.7 0.43 0.43 0.25 93 1012.1
20260906051223 22 309 16.1 17.7 0.38 0.38 0.20 90 1012.5
20260906051155 22 320 11.3 11.3 0.38 0.38 0.20 90 1012.5
20260906050723 23 350 12.9 16.1 0.30 0.30 0.13 88 1012.5
20260906050223 24 354 3.2 22.5 0.20 0.20 0.03 83 1012.5
20260906050156 24 0 9.7 16.1 0.18 0.18 0.00 83 1012.5
20260906045724 25 0 12.9 16.1 0.05 0.05 0.05 80 1012.8
20260906045222 25 54 6.4 17.7 0.00 0.00 0.00 77 1012.8
20260906045158 25 14 9.7 22.5 0.00 0.00 0.00 77 1012.8
20260906044723 25 353 3.2 11.3 0.00 0.00 0.00 77 1012.8
20260906044224 26 38 14.5 19.3 0.00 0.00 0.00 97 1012.5
20260906044158 26 6 19.3 29.0 0.00 0.00 0.00 97 1012.5
20260906043722 26 73 9.7 14.5 0.00 0.00 0.00 97 1012.5
20260906043222 26 72 4.8 8.0 0.00 0.00 0.00 97 1012.5
20260906043156 26 113 4.8 8.0 0.00 0.00 0.00 97 1012.5
20260906042723 26 61 4.8 6.4 0.00 0.00 0.00 97 1011.9
20260906042223 26 99 3.2 4.8 0.00 0.00 0.00 96 1011.9
20260906042157 26 106 3.2 3.2 0.00 0.00 0.00 96 1011.9
20260906041724 26 152 1.6 1.6 0.00 0.00 0.00 96 1011.9
20260906041223 26 128 0.0 1.6 0.00 0.00 0.00 96 1012.0
20260906041157 26 130 1.6 4.8 0.00 0.00 0.00 96 1012.0
20260906040723 26 151 1.6 4.8 0.00 0.00 0.00 95 1012.0
20260906040224 26 165 3.2 4.8 0.00 0.00 0.00 95 1012.0
20260906040156 26 114 3.2 4.8 0.00 0.00 0.00 95 1012.0
20260906035723 26 158 0.0 1.6 0.00 0.00 0.00 95 1012.1
20260906035223 26 162 1.6 4.8 0.00 0.00 0.00 95 1012.1
20260906035158 26 106 1.6 4.8 0.00 0.00 0.00 95 1012.1
20260906034724 26 151 4.8 4.8 0.00 0.00 0.00 94 1012.1
20260906034222 26 161 1.6 1.6 0.00 0.00 0.00 93 1011.8
20260906034159 26 145 0.0 1.6 0.00 0.00 0.00 93 1011.8
20260906033723 26 96 0.0 0.0 0.00 0.00 0.00 92 1011.8
20260906033224 26 151 3.2 3.2 0.00 0.00 0.00 92 1011.8
20260906033203 26 161 0.0 3.2 0.00 0.00 0.00 91 1011.8
20260906032722 27 147 0.0 1.6 0.00 0.00 0.00 91 1011.8
20260906032223 27 102 1.6 4.8 0.00 0.00 0.00 91 1011.8
20260906032156 27 93 1.6 6.4 0.00 0.00 0.00 91 1011.8
20260906031722 27 114 0.0 0.0 0.00 0.00 0.00 91 1011.8
20260906031223 27 69 1.6 1.6 0.00 0.00 0.00 90 1011.3
20260906031156 27 78 1.6 3.2 0.00 0.00 0.00 90 1011.3
20260906030724 27 71 3.2 3.2 0.00 0.00 0.00 90 1011.3
20260906030222 27 188 0.0 0.0 0.00 0.00 0.00 90 1011.3
20260906030155 27 188 0.0 0.0 0.00 0.00 0.00 90 1011.3
20260906025723 27 182 0.0 0.0 0.00 0.00 0.00 90 1011.1
20260906025321 27 208 0.0 0.0 0.00 0.00 0.00 89 1011.1
20260906025224 27 155 0.0 0.0 0.00 0.00 0.00 89 1011.1
20260906025157 27 208 0.0 0.0 0.00 0.00 0.00 89 1011.1
20260906024722 27 208 0.0 0.0 0.00 0.00 0.00 89 1011.1
20260906024223 27 208 0.0 0.0 0.00 0.00 0.00 89 1011.0
20260906024157 27 208 0.0 0.0 0.00 0.00 0.00 89 1011.0
20260906023724 27 223 0.0 0.0 0.00 0.00 0.00 88 1011.0
20260906023222 27 198 0.0 0.0 0.00 0.00 0.00 88 1011.0
20260906023158 27 206 0.0 0.0 0.00 0.00 0.00 87 1011.0
20260906022722 27 186 0.0 0.0 0.00 0.00 0.00 87 1011.0
20260906022224 27 265 0.0 0.0 0.00 0.00 0.00 87 1011.0
20260906022156 27 265 0.0 0.0 0.00 0.00 0.00 87 1011.0
20260906021722 27 239 1.6 1.6 0.00 0.00 0.00 87 1011.0
20260906021223 27 232 1.6 1.6 0.00 0.00 0.00 87 1011.0
20260906021156 27 186 0.0 0.0 0.00 0.00 0.00 87 1011.0
20260906020723 28 237 0.0 3.2 0.00 0.00 0.00 86 1011.0
20260906020222 28 241 0.0 0.0 0.00 0.00 0.00 86 1011.0
20260906020157 28 241 0.0 1.6 0.00 0.00 0.00 86 1011.0
20260906015723 28 209 0.0 1.6 0.00 0.00 0.00 86 1010.8
20260906015223 28 216 0.0 3.2 0.00 0.00 0.00 85 1010.8
20260906015156 28 229 0.0 1.6 0.00 0.00 0.00 85 1010.8
20260906014723 28 212 0.0 0.0 0.00 0.00 0.00 85 1010.8
20260906014222 28 202 0.0 0.0 0.00 0.00 0.00 84 1010.4
20260906014157 28 202 0.0 0.0 0.00 0.00 0.00 84 1010.4
20260906013722 28 257 0.0 1.6 0.00 0.00 0.00 83 1010.4
20260906013223 28 219 0.0 1.6 0.00 0.00 0.00 82 1010.4
20260906013156 28 205 0.0 1.6 0.00 0.00 0.00 82 1010.4
20260906012723 28 265 3.2 3.2 0.00 0.00 0.00 82 1010.1
20260906012222 29 246 0.0 0.0 0.00 0.00 0.00 81 1010.1
20260906012157 29 240 0.0 1.6 0.00 0.00 0.00 81 1010.1
20260906011723 29 230 0.0 0.0 0.00 0.00 0.00 80 1010.1
20260906011251 29 241 3.2 3.2 0.00 0.00 0.00 79 1009.9
20260906011224 29 241 0.0 1.6 0.00 0.00 0.00 80 1009.9
20260906011157 29 241 3.2 3.2 0.00 0.00 0.00 79 1009.9
20260906010722 29 229 3.2 8.0 0.00 0.00 0.00 79 1009.9
20260906010223 29 232 1.6 4.8 0.00 0.00 0.00 77 1009.9
20260906010156 29 215 4.8 8.0 0.00 0.00 0.00 77 1009.9
20260906005724 30 193 6.4 6.4 0.00 0.00 0.00 76 1010.0
20260906005222 30 257 1.6 4.8 0.00 0.00 0.00 74 1010.0
20260906005157 30 261 4.8 4.8 0.00 0.00 0.00 71 1010.0
20260906004724 30 131 0.0 0.0 0.00 0.00 0.00 70 1010.0
20260906004222 30 131 0.0 0.0 0.00 0.00 0.00 70 1009.9
20260906004156 30 131 0.0 0.0 0.00 0.00 0.00 70 1009.9
20260906003724 30 131 0.0 0.0 0.00 0.00 0.00 70 1009.9
20260906003223 30 131 0.0 0.0 0.00 0.00 0.00 71 1009.9
20260906003155 30 131 0.0 0.0 0.00 0.00 0.00 71 1009.9
20260906002723 30 131 0.0 0.0 0.00 0.00 0.00 71 1009.8
20260906002223 30 131 0.0 0.0 0.00 0.00 0.00 71 1009.8
20260906002155 30 131 0.0 0.0 0.00 0.00 0.00 71 1009.8
20260906001723 30 131 0.0 0.0 0.00 0.00 0.00 71 1009.8
20260906001222 30 131 0.0 0.0 0.00 0.00 0.00 71 1009.9
20260906001157 30 131 0.0 0.0 0.00 0.00 0.00 71 1009.9
20260906000723 31 131 0.0 0.0 0.00 0.00 0.00 70 1009.9
20260906000223 31 131 0.0 0.0 0.00 0.00 0.00 70 1009.9
20260906000157 31 131 0.0 0.0 0.00 0.00 0.00 70 1009.9
20260905235914 33 236 0.0 1.6 0.00 0.74 0.03 66 1014.4
20260905235912 33 267 1.6 3.2 0.00 0.74 0.03 65 1014.4
20260905235909 33 223 3.2 3.2 0.00 0.74 0.03 64 1014.4
20260905235723 31 131 0.0 1.6 0.00 0.00 0.00 70 1010.0
20260905235223 31 131 1.6 1.6 0.00 0.00 0.00 70 1010.0
20260905235158 31 131 0.0 1.6 0.00 0.00 0.00 70 1010.0
20260905234722 31 131 0.0 1.6 0.00 0.00 0.00 70 1010.0
20260905234223 31 131 0.0 0.0 0.00 0.00 0.00 69 1009.9
20260905234156 32 131 0.0 0.0 0.00 0.00 0.00 69 1009.9
20260905233723 32 131 1.6 1.6 0.00 0.03 0.00 69 1009.9
20260905233222 32 131 0.0 0.0 0.00 0.03 0.00 69 1009.9
20260905233157 32 131 0.0 0.0 0.00 0.03 0.00 68 1009.9
20260905232724 32 131 0.0 0.0 0.00 0.03 0.00 68 1010.0
20260905232222 32 131 0.0 1.6 0.00 0.03 0.00 67 1010.0
20260905232159 32 131 0.0 0.0 0.00 0.03 0.00 67 1010.0
20260905231724 32 131 0.0 0.0 0.00 0.03 0.00 65 1010.0
20260905231223 32 131 0.0 0.0 0.00 0.03 0.00 65 1009.9
20260905231156 32 131 0.0 0.0 0.00 0.03 0.00 65 1009.9
20260905230724 32 131 0.0 1.6 0.00 0.03 0.00 65 1009.9
20260905230223 32 131 1.6 1.6 0.00 0.03 0.00 65 1009.9
20260905230155 32 131 1.6 3.2 0.00 0.03 0.00 64 1009.9
20260905225722 32 82 3.2 3.2 0.00 0.03 0.00 64 1009.9
20260905225224 32 113 0.0 1.6 0.00 0.03 0.00 64 1009.9
20260905225157 32 103 0.0 3.2 0.00 0.03 0.00 64 1009.9
20260905224722 33 96 3.2 3.2 0.00 0.03 0.00 63 1009.9
20260905224223 33 116 1.6 3.2 0.00 0.03 0.00 61 1009.9
20260905224156 33 109 0.0 3.2 0.00 0.03 0.00 61 1009.9
20260905223723 33 110 0.0 3.2 0.00 0.03 0.00 61 1009.9
20260905223222 33 136 1.6 3.2 0.00 0.03 0.00 64 1009.9
20260905223155 33 88 1.6 1.6 0.00 0.03 0.00 60 1009.9
20260905222723 33 88 1.6 1.6 0.00 0.03 0.00 62 1009.8
20260905222231 33 76 0.0 1.6 0.00 0.03 0.00 61 1009.8
20260905222223 33 76 0.0 1.6 0.00 0.03 0.00 61 1009.8
20260905222156 33 76 0.0 1.6 0.00 0.03 0.00 61 1009.8
20260905221723 33 76 0.0 0.0 0.00 0.03 0.00 59 1009.8
20260905221222 33 18 0.0 0.0 0.00 0.03 0.00 58 1009.7
20260905221157 33 18 0.0 0.0 0.00 0.03 0.00 58 1009.7
20260905220723 33 13 0.0 1.6 0.00 0.03 0.00 58 1009.7
20260905220223 33 64 1.6 4.8 0.00 0.03 0.00 60 1009.7
20260905220156 33 52 4.8 4.8 0.00 0.03 0.00 60 1009.7
20260905215722 33 76 0.0 3.2 0.00 0.03 0.00 58 1009.7
20260905215222 33 157 0.0 0.0 0.00 0.03 0.00 61 1009.7
20260905215155 33 157 0.0 0.0 0.00 0.03 0.00 61 1009.7
20260905214723 33 164 1.6 3.2 0.00 0.03 0.00 58 1009.7
20260905214222 34 55 0.0 1.6 0.00 0.03 0.00 58 1009.9
20260905214157 34 41 0.0 1.6 0.00 0.03 0.00 58 1009.9
20260905213722 34 93 1.6 4.8 0.00 0.03 0.00 56 1009.9
20260905213223 34 0 0.0 6.4 0.00 0.03 0.00 57 1009.9
20260905213156 34 31 6.4 6.4 0.00 0.03 0.00 56 1009.9
20260905212724 34 147 1.6 4.8 0.00 0.03 0.00 54 1010.1
20260905212223 34 49 1.6 3.2 0.00 0.03 0.00 57 1010.1
20260905212156 34 68 0.0 0.0 0.00 0.03 0.00 57 1010.1
20260905211722 34 68 0.0 1.6 0.00 0.03 0.00 55 1010.1
20260905211223 35 49 4.8 4.8 0.00 0.03 0.00 57 1010.2
20260905211156 35 64 4.8 6.4 0.00 0.03 0.00 54 1010.2
20260905210722 35 58 0.0 0.0 0.00 0.03 0.00 58 1010.2
20260905210222 35 16 1.6 1.6 0.00 0.03 0.00 58 1010.2
20260905210157 35 16 1.6 3.2 0.00 0.03 0.00 54 1010.2
20260905205723 35 119 1.6 1.6 0.00 0.03 0.00 53 1010.3
20260905205223 35 71 0.0 0.0 0.00 0.03 0.00 52 1010.3
20260905205156 35 71 0.0 0.0 0.00 0.03 0.00 52 1010.3
20260905204723 35 86 0.0 0.0 0.00 0.03 0.00 53 1010.3
20260905204224 35 86 3.2 3.2 0.00 0.03 0.00 54 1010.3
20260905204155 35 10 3.2 6.4 0.00 0.03 0.00 54 1010.3
20260905203722 35 45 4.8 8.0 0.00 0.03 0.00 53 1010.3
20260905203223 35 78 4.8 8.0 0.00 0.03 0.00 53 1010.3
20260905203157 35 45 3.2 6.4 0.00 0.03 0.00 55 1010.3
20260905202724 35 32 4.8 4.8 0.00 0.03 0.00 54 1010.6
20260905202222 35 76 4.8 9.7 0.00 0.03 0.00 53 1010.6
20260905202156 35 110 4.8 8.0 0.00 0.03 0.00 53 1010.6
20260905201723 35 346 4.8 4.8 0.00 0.03 0.00 54 1010.6
20260905201223 35 0 4.8 8.0 0.00 0.03 0.00 53 1010.7
20260905201155 35 13 4.8 9.7 0.00 0.03 0.00 53 1010.7
20260905200724 35 80 4.8 8.0 0.00 0.03 0.00 52 1010.7
20260905200223 35 18 3.2 6.4 0.00 0.03 0.00 52 1010.7
20260905200155 35 79 6.4 6.4 0.00 0.03 0.00 52 1010.7
20260905195723 35 49 6.4 9.7 0.00 0.03 0.00 55 1010.7
20260905195224 35 85 0.0 1.6 0.00 0.03 0.00 54 1010.7
20260905195157 35 48 3.2 4.8 0.00 0.03 0.00 57 1010.7
20260905194722 35 0 0.0 0.0 0.00 0.03 0.00 55 1010.7
20260905194222 34 23 4.8 4.8 0.00 0.03 0.00 58 1011.0
20260905194155 34 13 1.6 1.6 0.00 0.03 0.00 58 1011.0
20260905193723 34 48 3.2 6.4 0.00 0.03 0.00 58 1011.0
20260905193223 34 10 3.2 11.3 0.00 0.03 0.00 59 1011.0
20260905193156 34 64 11.3 11.3 0.00 0.03 0.00 59 1011.0
20260905192722 34 58 6.4 6.4 0.00 0.03 0.00 59 1011.2
20260905192223 34 37 0.0 8.0 0.00 0.03 0.00 60 1011.2
20260905192156 34 73 0.0 3.2 0.00 0.03 0.00 62 1011.2
20260905191723 34 113 1.6 3.2 0.00 0.03 0.00 62 1011.2
20260905191222 34 295 0.0 4.8 0.00 0.03 0.00 61 1011.4
20260905191157 34 330 4.8 4.8 0.00 0.03 0.00 61 1011.4
20260905190724 34 27 0.0 1.6 0.00 0.03 0.00 61 1011.4
20260905190222 33 44 0.0 4.8 0.00 0.03 0.00 60 1011.4
20260905190155 33 76 1.6 1.6 0.00 0.03 0.00 61 1011.4
20260905185723 33 85 4.8 6.4 0.00 0.03 0.00 63 1011.6
20260905185223 33 141 1.6 3.2 0.00 0.03 0.00 62 1011.6
20260905185156 33 112 0.0 3.2 0.00 0.03 0.00 60 1011.6
20260905184722 33 0 0.0 1.6 0.00 0.03 0.00 60 1011.6
20260905184223 33 102 4.8 9.7 0.00 0.03 0.00 60 1011.9
20260905184156 33 99 4.8 4.8 0.00 0.03 0.00 60 1011.9
20260905183723 33 8 0.0 4.8 0.00 0.03 0.00 61 1011.9
20260905183222 33 56 1.6 4.8 0.00 0.03 0.00 61 1011.9
20260905183157 33 54 1.6 4.8 0.00 0.03 0.00 61 1011.9
20260905182723 33 73 3.2 4.8 0.00 0.03 0.00 61 1012.3
20260905182223 33 0 0.0 3.2 0.00 0.03 0.00 62 1012.3
20260905182156 33 1 3.2 4.8 0.00 0.03 0.00 63 1012.3
20260905181722 33 357 4.8 9.7 0.00 0.03 0.00 60 1012.3
20260905181223 33 352 4.8 9.7 0.00 0.03 0.00 62 1012.4
20260905181156 33 1 3.2 3.2 0.00 0.03 0.00 62 1012.4
20260905180723 33 120 3.2 3.2 0.00 0.03 0.00 62 1012.4
20260905180222 33 25 1.6 4.8 0.00 0.03 0.00 61 1012.4
20260905180157 33 42 1.6 8.0 0.00 0.03 0.00 64 1012.4
20260905175724 33 309 0.0 8.0 0.00 0.03 0.00 61 1012.6
20260905175222 33 357 0.0 4.8 0.00 0.03 0.00 63 1012.6
20260905175157 33 78 4.8 6.4 0.00 0.03 0.00 62 1012.6
20260905174723 33 51 1.6 1.6 0.00 0.03 0.00 67 1012.6
20260905174224 33 133 3.2 3.2 0.00 0.03 0.00 63 1012.8
20260905174156 33 82 0.0 1.6 0.00 0.03 0.00 63 1012.8
20260905173722 33 359 4.8 6.4 0.00 0.03 0.00 62 1012.8
20260905173223 33 61 3.2 3.2 0.00 0.03 0.00 64 1012.8
20260905173158 33 251 3.2 6.4 0.00 0.03 0.00 64 1012.8
20260905172724 33 325 0.0 1.6 0.00 0.03 0.00 64 1012.9
20260905172222 33 301 1.6 4.8 0.00 0.03 0.00 64 1012.9
20260905172157 33 52 4.8 4.8 0.00 0.03 0.00 64 1012.9
20260905171724 33 109 3.2 3.2 0.00 0.03 0.00 65 1012.9
20260905171223 33 83 3.2 3.2 0.00 0.03 0.00 65 1013.0
20260905171156 33 83 3.2 3.2 0.00 0.03 0.00 65 1013.0
20260905170723 33 124 8.0 11.3 0.00 0.03 0.00 66 1013.0
20260905170224 33 0 3.2 6.4 0.00 0.03 0.00 68 1013.0
20260905170157 33 1 6.4 9.7 0.00 0.03 0.00 68 1013.0
20260905165723 32 304 4.8 6.4 0.00 0.03 0.00 68 1013.2
20260905165223 32 0 6.4 6.4 0.00 0.03 0.00 68 1013.2
20260905165156 32 352 6.4 8.0 0.00 0.03 0.00 68 1013.2
20260905164723 32 357 3.2 9.7 0.00 0.03 0.00 68 1013.2
20260905164224 32 357 4.8 6.4 0.00 0.03 0.00 70 1013.3
20260905164156 32 44 6.4 8.0 0.00 0.03 0.00 70 1013.3
20260905163722 32 24 4.8 6.4 0.00 0.03 0.00 69 1013.3
20260905163223 32 37 0.0 1.6 0.00 0.03 0.00 69 1013.3
20260905163156 32 359 1.6 6.4 0.00 0.03 0.00 69 1013.3
20260905162724 32 27 1.6 4.8 0.00 0.03 0.00 68 1013.4
20260905162223 32 352 1.6 9.7 0.00 0.03 0.00 69 1013.4
20260905162156 32 1 3.2 6.4 0.00 0.03 0.00 69 1013.4
20260905161724 32 0 9.7 9.7 0.00 0.03 0.00 69 1013.4
20260905161222 32 316 0.0 4.8 0.00 0.03 0.00 69 1013.4
20260905161156 32 335 4.8 8.0 0.00 0.03 0.00 69 1013.4
20260905160723 32 10 3.2 8.0 0.00 0.03 0.00 68 1013.4
20260905160224 32 271 0.0 3.2 0.00 0.03 0.00 70 1013.4
20260905160157 32 357 1.6 4.8 0.00 0.03 0.00 71 1013.4
20260905155723 31 1 0.0 4.8 0.00 0.03 0.00 70 1013.4
20260905155224 31 352 6.4 6.4 0.00 0.03 0.00 73 1013.4
20260905155157 31 16 3.2 4.8 0.00 0.03 0.00 73 1013.4
20260905154723 31 51 0.0 1.6 0.00 0.03 0.00 74 1013.4
20260905154223 31 359 1.6 4.8 0.00 0.03 0.00 74 1013.6
20260905154157 31 319 1.6 3.2 0.00 0.03 0.00 74 1013.6
20260905153724 31 342 8.0 8.0 0.00 0.03 0.00 74 1013.6
20260905153223 31 315 0.0 3.2 0.00 0.03 0.00 75 1013.6
20260905153156 31 320 3.2 3.2 0.00 0.03 0.00 75 1013.6
20260905152722 31 343 4.8 4.8 0.00 0.03 0.00 75 1013.6
20260905152223 31 302 0.0 3.2 0.00 0.03 0.00 75 1013.6
20260905152155 30 292 3.2 4.8 0.00 0.03 0.00 75 1013.6
20260905151724 30 350 4.8 4.8 0.00 0.03 0.00 75 1013.6
20260905151222 30 340 4.8 8.0 0.00 0.03 0.00 76 1013.5
20260905151155 30 342 4.8 4.8 0.00 0.03 0.00 76 1013.5
20260905150723 30 0 3.2 4.8 0.00 0.03 0.00 77 1013.5
20260905150224 30 356 1.6 1.6 0.00 0.03 0.00 76 1013.5
20260905150200 30 326 0.0 3.2 0.00 0.03 0.00 76 1013.5
20260905145722 30 352 3.2 4.8 0.00 0.03 0.00 79 1013.6
20260905145223 30 42 1.6 1.6 0.00 0.03 0.00 78 1013.6
20260905145156 30 329 0.0 1.6 0.00 0.03 0.00 78 1013.6
20260905144724 30 0 1.6 3.2 0.00 0.03 0.00 78 1013.6
20260905144222 30 359 4.8 6.4 0.00 0.03 0.00 79 1013.7
20260905144155 30 339 0.0 4.8 0.00 0.03 0.00 79 1013.7
20260905143723 29 343 4.8 6.4 0.00 0.03 0.00 79 1013.7
20260905143222 29 312 0.0 6.4 0.00 0.03 0.00 80 1013.7
20260905143155 29 332 4.8 6.4 0.00 0.03 0.00 80 1013.7
20260905142723 29 356 3.2 6.4 0.00 0.03 0.00 81 1013.6
20260905142224 28 354 0.0 1.6 0.00 0.03 0.00 81 1013.6
20260905142158 28 354 3.2 4.8 0.00 0.03 0.00 81 1013.6
20260905141722 28 349 3.2 4.8 0.00 0.03 0.00 82 1013.6
20260905141223 28 353 3.2 4.8 0.00 0.03 0.00 83 1013.7
20260905141156 28 353 1.6 3.2 0.00 0.03 0.00 83 1013.7
20260905140724 28 44 1.6 3.2 0.00 0.03 0.00 83 1013.7
20260905140223 28 353 4.8 4.8 0.00 0.03 0.00 85 1013.7
20260905140156 28 356 0.0 3.2 0.00 0.03 0.00 85 1013.7
20260905135722 27 332 3.2 6.4 0.00 0.03 0.00 86 1013.8
20260905135223 27 352 3.2 4.8 0.00 0.03 0.00 87 1013.8
20260905135155 27 4 4.8 8.0 0.00 0.03 0.00 87 1013.8
20260905134723 27 0 1.6 4.8 0.00 0.03 0.00 87 1013.8
20260905134222 27 350 4.8 4.8 0.00 0.03 0.00 89 1014.0
20260905134158 26 24 1.6 4.8 0.00 0.03 0.00 89 1014.0
20260905133723 26 356 0.0 4.8 0.00 0.03 0.00 90 1014.0
20260905133248 26 356 4.8 6.4 0.00 0.03 0.00 90 1014.0
20260905133223 26 342 6.4 6.4 0.00 0.03 0.00 90 1014.0
20260905133158 26 356 4.8 6.4 0.00 0.03 0.00 90 1014.0
20260905132723 26 343 1.6 4.8 0.00 0.03 0.00 91 1014.1
20260905132224 26 356 3.2 3.2 0.00 0.03 0.00 93 1014.1
20260905132202 26 352 1.6 1.6 0.00 0.03 0.00 93 1014.1
20260905131722 26 353 0.0 1.6 0.00 0.03 0.00 94 1014.1
20260905131223 25 343 3.2 3.2 0.00 0.03 0.00 95 1014.0
20260905131156 25 326 0.0 1.6 0.00 0.03 0.00 95 1014.0
20260905130723 25 352 1.6 1.6 0.00 0.03 0.00 96 1014.0
20260905130222 25 332 3.2 4.8 0.00 0.03 0.00 98 1014.0
20260905130200 25 343 0.0 3.2 0.00 0.03 0.00 98 1014.0
20260905125723 25 354 4.8 4.8 0.00 0.03 0.00 100 1014.2
20260905125223 24 328 0.0 3.2 0.00 0.03 0.00 100 1014.2
20260905125156 24 346 3.2 4.8 0.00 0.03 0.00 100 1014.2
20260905124722 24 333 1.6 4.8 0.00 0.03 0.00 100 1014.2
20260905124223 23 359 1.6 3.2 0.00 0.03 0.00 100 1014.2
20260905124156 23 353 3.2 4.8 0.00 0.03 0.00 100 1014.2
20260905123723 23 350 0.0 1.6 0.00 0.03 0.00 100 1014.2
20260905123224 23 229 0.0 0.0 0.00 0.03 0.00 100 1014.2
20260905123157 23 229 0.0 0.0 0.00 0.03 0.00 100 1014.2
20260905122723 23 229 0.0 0.0 0.00 0.03 0.00 100 1014.0
20260905122223 23 229 0.0 0.0 0.00 0.03 0.00 100 1014.0
20260905122156 23 229 0.0 0.0 0.00 0.03 0.00 100 1014.0
20260905121723 23 229 0.0 0.0 0.00 0.03 0.00 100 1014.0
20260905121223 23 229 0.0 0.0 0.00 0.03 0.00 100 1013.8
20260905121156 23 229 0.0 0.0 0.00 0.03 0.00 100 1013.8
20260905120724 23 229 0.0 0.0 0.00 0.03 0.00 100 1013.8
20260905120222 23 229 0.0 0.0 0.00 0.03 0.00 100 1013.8
20260905120158 23 229 0.0 0.0 0.00 0.03 0.00 100 1013.8
20260905115722 23 229 0.0 0.0 0.00 0.03 0.00 100 1013.7
20260905115222 23 229 0.0 0.0 0.00 0.03 0.00 100 1013.7
20260905115156 23 229 0.0 0.0 0.00 0.03 0.00 100 1013.7
20260905114722 23 229 0.0 0.0 0.00 0.03 0.00 100 1013.7
20260905114230 23 229 0.0 0.0 0.00 0.03 0.00 100 1013.5
20260905114223 23 229 0.0 0.0 0.00 0.03 0.00 100 1013.5
20260905114157 23 229 0.0 0.0 0.00 0.03 0.00 100 1013.5
20260905113723 23 220 0.0 0.0 0.00 0.03 0.00 99 1013.5
20260905113222 23 220 0.0 0.0 0.00 0.03 0.00 99 1013.5
20260905113204 23 220 0.0 1.6 0.00 0.03 0.00 99 1013.5
20260905112722 23 222 1.6 1.6 0.00 0.03 0.00 99 1013.3
20260905112222 23 241 0.0 0.0 0.00 0.03 0.00 99 1013.3
20260905112202 23 241 0.0 0.0 0.00 0.03 0.00 99 1013.3
20260905111724 23 241 0.0 0.0 0.00 0.03 0.00 99 1013.3
20260905111223 23 260 0.0 1.6 0.00 0.03 0.00 99 1013.2
20260905111157 23 258 1.6 1.6 0.00 0.03 0.00 98 1013.2
20260905110723 23 301 0.0 3.2 0.00 0.03 0.00 98 1013.2
20260905110222 23 309 1.6 1.6 0.00 0.03 0.00 98 1013.2
20260905105722 23 301 1.6 1.6 0.00 0.03 0.00 98 1013.1
20260905105231 23 304 0.0 3.2 0.00 0.03 0.00 97 1013.1
20260905105222 23 319 0.0 3.2 0.00 0.03 0.00 97 1013.1
20260905105158 23 304 0.0 3.2 0.00 0.03 0.00 97 1013.1
20260905104723 23 302 1.6 3.2 0.00 0.03 0.00 97 1013.1
20260905104222 23 328 0.0 1.6 0.00 0.03 0.00 97 1013.1
20260905104156 23 316 1.6 1.6 0.00 0.03 0.00 97 1013.1
20260905103722 24 353 0.0 1.6 0.00 0.03 0.00 97 1013.1
20260905103223 24 316 0.0 3.2 0.00 0.03 0.00 97 1013.1
20260905103157 24 298 1.6 1.6 0.00 0.03 0.00 97 1013.1
20260905102724 24 304 1.6 1.6 0.00 0.03 0.00 97 1013.1
20260905102242 24 301 1.6 3.2 0.00 0.03 0.00 96 1013.1
20260905102222 24 295 1.6 1.6 0.00 0.03 0.00 96 1013.1
20260905102157 24 301 1.6 3.2 0.00 0.03 0.00 96 1013.1
20260905101723 24 342 3.2 3.2 0.00 0.03 0.00 96 1013.1
20260905101224 24 281 1.6 3.2 0.00 0.03 0.00 96 1013.0
20260905101159 24 288 3.2 3.2 0.00 0.03 0.00 96 1013.0
20260905100722 24 277 3.2 3.2 0.00 0.03 0.00 96 1013.0
20260905100222 24 308 3.2 8.0 0.00 0.03 0.00 96 1013.0
20260905100157 24 292 3.2 4.8 0.00 0.03 0.00 96 1013.0
20260905095723 24 287 1.6 4.8 0.00 0.03 0.00 96 1013.0
20260905095223 24 275 0.0 3.2 0.00 0.03 0.00 96 1013.0
20260905095157 24 301 3.2 4.8 0.00 0.03 0.00 96 1013.0
20260905094722 24 280 1.6 1.6 0.00 0.03 0.00 96 1013.0
20260905094223 24 267 0.0 3.2 0.00 0.03 0.00 95 1012.9
20260905094157 24 292 4.8 6.4 0.00 0.03 0.00 95 1012.9
20260905093723 24 294 3.2 3.2 0.00 0.03 0.00 95 1012.9
20260905093222 24 253 0.0 1.6 0.00 0.03 0.00 95 1012.9
20260905093157 24 253 0.0 1.6 0.00 0.03 0.00 95 1012.9
20260905092723 24 248 0.0 1.6 0.00 0.03 0.00 95 1012.9
20260905092223 24 253 3.2 4.8 0.00 0.03 0.00 94 1012.9
20260905092156 24 257 1.6 4.8 0.00 0.03 0.00 94 1012.9
20260905091724 24 246 0.0 0.0 0.00 0.03 0.00 94 1012.9
20260905091223 24 246 0.0 1.6 0.00 0.03 0.00 93 1012.8
20260905091155 24 246 1.6 3.2 0.00 0.03 0.00 93 1012.8
20260905090723 25 244 0.0 0.0 0.00 0.03 0.00 93 1012.8
20260905090224 25 232 0.0 0.0 0.00 0.03 0.00 92 1012.8
20260905090158 25 232 0.0 0.0 0.00 0.03 0.00 92 1012.8
20260905085723 25 246 1.6 3.2 0.00 0.03 0.00 92 1012.6
20260905085223 25 209 0.0 0.0 0.00 0.03 0.00 92 1012.6
20260905085156 25 209 0.0 1.6 0.00 0.03 0.00 91 1012.6
20260905084724 25 322 0.0 1.6 0.00 0.03 0.00 91 1012.6
20260905084223 25 250 0.0 3.2 0.00 0.03 0.00 91 1012.4
20260905084155 25 291 0.0 0.0 0.00 0.03 0.00 91 1012.4
20260905083723 25 265 4.8 4.8 0.00 0.03 0.00 91 1012.4
20260905083224 25 277 1.6 1.6 0.00 0.03 0.00 91 1012.4
20260905083156 25 254 0.0 3.2 0.00 0.03 0.00 91 1012.4
20260905082722 25 254 0.0 1.6 0.00 0.03 0.00 91 1012.4
20260905082227 25 243 0.0 0.0 0.00 0.03 0.00 91 1012.4
20260905082223 25 243 0.0 0.0 0.00 0.03 0.00 91 1012.4
20260905082156 25 243 0.0 0.0 0.00 0.03 0.00 91 1012.4
20260905081724 25 243 0.0 0.0 0.00 0.03 0.00 91 1012.4
20260905081550 25 253 0.0 0.0 0.00 0.03 0.00 91 1012.3
20260905081223 25 253 0.0 0.0 0.00 0.03 0.00 91 1012.3
20260905081157 25 253 0.0 0.0 0.00 0.03 0.00 91 1012.3
20260905080724 25 260 0.0 0.0 0.00 0.03 0.00 91 1012.3
20260905080223 25 257 1.6 3.2 0.00 0.03 0.00 91 1012.3
20260905080155 25 271 0.0 1.6 0.00 0.03 0.00 91 1012.3
20260905075723 25 257 3.2 3.2 0.00 0.03 0.00 92 1012.3
20260905075224 25 243 0.0 0.0 0.00 0.03 0.00 92 1012.3
20260905075157 25 227 0.0 0.0 0.00 0.03 0.00 92 1012.3
20260905074723 25 192 0.0 0.0 0.00 0.03 0.00 91 1012.3
20260905074222 25 253 0.0 0.0 0.00 0.03 0.00 91 1012.3
20260905074155 25 253 0.0 0.0 0.00 0.03 0.00 91 1012.3
20260905073724 25 257 0.0 0.0 0.00 0.03 0.00 91 1012.3